Volver al catálogo

COSMOS 249 DEB

ActivoLEO
NORAD 3757·DEBRIS·🇷🇺 Russia

Lanzado Oct 20, 1968 desde Baikonur Cosmodrome

Loading…

Próximos Pases (próximas 24 horas)

TLE

ActualizadoSource: Space-Track

Época: Sep 14, 2026, 02:20 UTC

1 03757U 68091AU  26257.09741119  .00006043  00000-0  65265-3 0  9990
2 03757  61.9715 285.8192 0351596 130.3085 232.9276 14.53306042846835

Sigue COSMOS 249 DEB en tiempo real con AllMySat

Download on the App Store